Location: Ellingshausen
(50.5460°N, 10.4723°E)
Time: 23:51:15
(UTC+00:00)

COSMO-SKYMED 1 - Pass Details

Date: 18 January 2026
Orbit: 577 x 579 km, 97.9° (Epoch: 18 February)

Event Time Altitude Azimuth Distance (km) Brightness Sun altitude
Rises 04:21:45 0° 155° (SSE) 2,790 6.2 -26.2°
Reaches altitude 10° 04:23:54 10° 152° (SSE) 1,895 5.4 -25.9°
Maximum altitude 04:27:58 62° 72° (ENE) 660 2.8 -25.2°
Enters shadow 04:28:34 54° 30° (NNE) 711 2.9 -25.1°
